Weather History for Columbia / Mount Pleasant, TN

Change the Weather History Date:

Tuesday, April 22, 2014

  Actual Average (KBNA) Record (KBNA)
Temperature  
Mean Temperature 68 °F 61 °F  
Max Temperature 78 °F 72 °F 86 °F (1963)
Min Temperature 57 °F 50 °F 32 °F (1978)
Degree Days  
Heating Degree Days 0 6  
Month to date heating degree days 182  
Since 1 July heating degree days 3593  
Cooling Degree Days 2 2  
Month to date cooling degree days 24  
Year to date cooling degree days 32  
Growing Degree Days 18 (Base 50)    
Moisture  
Dew Point 62 °F    
Average Humidity 88    
Maximum Humidity 100    
Minimum Humidity 56    
Precipitation  
Precipitation 0.00 in 0.15 in 5.03 in (1883)
Month to date precipitation 2.76  
Year to date precipitation 14.56  
Snow  
Snow 0.00 in 0.00 in 0.00 in (2002)
Month to date snowfall 0.1  
Since 1 July snowfall 6.4  
Snow Depth -    
Sea Level Pressure  
Sea Level Pressure 29.89 in    
Wind  
Wind Speed 4 mph (WNW)    
Max Wind Speed 10 mph    
Max Gust Speed -    
Visibility 8 miles    
Events      
T = Trace of Precipitation, MM = Missing Value Source: NWS Daily Summary

Daily Weather History Graph

Daily Weather History Graph

Search for Another Location

Airport:

Trip Planner

Search our weather history database for the weather conditions in past years. The results will help you decide how hot, cold, wet, or windy it might be!

Date:

Astronomy

Apr. 22, 2014 Rise Set
Actual Time 6:07 AM CDT 7:27 PM CDT
Civil Twilight 5:40 AM CDT 7:54 PM CDT
Nautical Twilight 5:08 AM CDT 8:26 PM CDT
Astronomical Twilight 4:35 AM CDT 8:59 PM CDT
Moon 1:41 AM CDT (4/22) 12:42 PM CDT (4/22)
Length of Visible Light 14h 13m
Length of Day
13h 20m
Last Quarter, 46% of the Moon is Illuminated
Apr 22
Last Quarter
Apr 29
New
May 6
First Quarter
May 14
Full
May 21
Last Quarter

Hourly Weather History & Observations

Time (CDT) Temp. Dew Point Humidity Pressure Visibility Wind Dir Wind Speed Gust Speed Precip Events Conditions
12:35 AM 62.6 °F 62.6 °F 100% 29.92 in 10.0 mi SSE 4.6 mph - N/A   Overcast
12:55 AM 62.6 °F 62.6 °F 100% 29.91 in 10.0 mi SSE 3.5 mph - N/A   Overcast
1:15 AM 62.6 °F 62.6 °F 100% 29.92 in 5.0 mi West 5.8 mph - N/A   Overcast
1:35 AM 62.6 °F 62.6 °F 100% 29.92 in 3.0 mi SW 10.4 mph - N/A   Overcast
1:55 AM 62.6 °F 62.6 °F 100% 29.93 in 2.5 mi WSW 6.9 mph - N/A   Overcast
2:15 AM 60.8 °F 60.8 °F 100% 29.92 in 3.0 mi SSW 6.9 mph - N/A   Overcast
2:35 AM 60.8 °F 60.8 °F 100% 29.91 in 4.0 mi SW 5.8 mph - N/A   Mostly Cloudy
2:55 AM 60.8 °F 60.8 °F 100% 29.91 in 4.0 mi SSW 4.6 mph - N/A   Overcast
3:15 AM 60.8 °F 60.8 °F 100% 29.90 in 5.0 mi SW 4.6 mph - N/A   Mostly Cloudy
3:35 AM 60.8 °F 60.8 °F 100% 29.90 in 6.0 mi Calm Calm - N/A   Overcast
3:55 AM 60.8 °F 60.8 °F 100% 29.89 in 7.0 mi Calm Calm - N/A   Overcast
4:15 AM 60.8 °F 60.8 °F 100% 29.89 in 6.0 mi Calm Calm - N/A   Mostly Cloudy
4:35 AM 60.8 °F 60.8 °F 100% 29.88 in 3.0 mi Calm Calm - N/A   Mostly Cloudy
5:15 AM 60.8 °F 60.8 °F 100% 29.89 in 2.0 mi Calm Calm - N/A   Overcast
5:35 AM 60.8 °F 60.8 °F 100% 29.89 in 4.0 mi SW 3.5 mph - N/A   Overcast
5:55 AM 60.8 °F 60.8 °F 100% 29.89 in 4.0 mi Calm Calm - N/A   Overcast
6:15 AM 60.8 °F 60.8 °F 100% 29.89 in 3.0 mi SSW 3.5 mph - N/A   Overcast
6:35 AM 60.8 °F 60.8 °F 100% 29.89 in 4.0 mi Calm Calm - N/A   Overcast
6:55 AM 60.8 °F 60.8 °F 100% 29.90 in 3.0 mi Calm Calm - N/A   Overcast
7:15 AM 60.8 °F 60.8 °F 100% 29.90 in 4.0 mi WSW 3.5 mph - N/A   Mostly Cloudy
7:35 AM 60.8 °F 60.8 °F 100% 29.90 in 3.0 mi SW 3.5 mph - N/A   Mostly Cloudy
7:55 AM 62.6 °F 62.6 °F 100% 29.90 in 2.5 mi SSW 5.8 mph - N/A   Mostly Cloudy
8:15 AM 62.6 °F 62.6 °F 100% 29.90 in 9.0 mi WSW 4.6 mph - N/A   Mostly Cloudy
8:35 AM 62.6 °F 62.6 °F 100% 29.90 in 10.0 mi SW 3.5 mph - N/A   Mostly Cloudy
8:55 AM 64.4 °F 64.4 °F 100% 29.90 in 10.0 mi SW 6.9 mph - N/A   Mostly Cloudy
9:15 AM 64.4 °F 64.4 °F 100% 29.90 in 10.0 mi WSW 4.6 mph - N/A   Overcast
9:35 AM 66.2 °F 66.2 °F 100% 29.90 in 10.0 mi WSW 4.6 mph - N/A   Mostly Cloudy
9:55 AM 66.2 °F 66.2 °F 100% 29.90 in 10.0 mi Variable 5.8 mph - N/A   Overcast
10:15 AM 66.2 °F 66.2 °F 100% 29.90 in 10.0 mi West 4.6 mph - N/A   Overcast
10:35 AM 66.2 °F 66.2 °F 100% 29.91 in 10.0 mi Calm Calm - N/A   Overcast
10:55 AM 64.4 °F 64.4 °F 100% 29.92 in 10.0 mi NW 5.8 mph - N/A   Overcast
11:15 AM 64.4 °F 64.4 °F 100% 29.92 in 1.2 mi Calm Calm - N/A   Overcast
11:35 AM 64.4 °F 64.4 °F 100% 29.91 in 3.0 mi Calm Calm - N/A   Overcast
11:55 AM 66.2 °F 66.2 °F 100% 29.91 in 9.0 mi NNW 4.6 mph - N/A   Overcast
12:15 PM 66.2 °F 66.2 °F 100% 29.90 in 10.0 mi North 4.6 mph - N/A   Overcast
12:35 PM 66.2 °F 66.2 °F 100% 29.90 in 10.0 mi Variable 3.5 mph - N/A   Overcast
12:55 PM 69.8 °F 69.8 °F 100% 29.89 in 10.0 mi North 5.8 mph - N/A   Overcast
1:15 PM 68.0 °F 68.0 °F 100% 29.89 in 10.0 mi North 5.8 mph - N/A   Overcast
1:35 PM 69.8 °F 69.8 °F 100% 29.88 in 10.0 mi Variable 4.6 mph - N/A   Mostly Cloudy
1:55 PM 71.6 °F 69.8 °F 94% 29.87 in 10.0 mi Variable 5.8 mph - N/A   Clear
2:15 PM 73.4 °F 69.8 °F 88% 29.87 in 10.0 mi Calm Calm - N/A   Scattered Clouds
2:35 PM 73.4 °F 69.8 °F 88% 29.87 in 10.0 mi NNW 3.5 mph - N/A   Mostly Cloudy
2:55 PM 73.4 °F 69.8 °F 88% 29.86 in 10.0 mi Calm Calm - N/A   Scattered Clouds
3:15 PM 75.2 °F 69.8 °F 83% 29.85 in 10.0 mi Calm Calm - N/A   Partly Cloudy
3:35 PM 75.2 °F 68.0 °F 78% 29.84 in 10.0 mi Calm Calm - N/A   Clear
3:55 PM 75.2 °F 69.8 °F 83% 29.84 in 10.0 mi North 4.6 mph - N/A   Partly Cloudy
4:15 PM 75.2 °F 68.0 °F 78% 29.83 in 10.0 mi Calm Calm - N/A   Partly Cloudy
4:35 PM 75.2 °F 66.2 °F 73% 29.83 in 10.0 mi Variable 5.8 mph - N/A   Mostly Cloudy
4:55 PM 75.2 °F 66.2 °F 73% 29.83 in 10.0 mi North 3.5 mph - N/A   Overcast
5:15 PM 77.0 °F 68.0 °F 74% 29.83 in 10.0 mi North 3.5 mph - N/A   Mostly Cloudy
5:35 PM 78.8 °F 66.2 °F 65% 29.83 in 10.0 mi NW 8.1 mph - N/A   Scattered Clouds
5:55 PM 77.0 °F 64.4 °F 65% 29.83 in 10.0 mi NW 5.8 mph - N/A   Scattered Clouds
6:15 PM 75.2 °F 64.4 °F 69% 29.83 in 10.0 mi North 8.1 mph - N/A   Scattered Clouds
6:35 PM 75.2 °F 64.4 °F 69% 29.84 in 10.0 mi NNW 8.1 mph - N/A   Overcast
6:55 PM 73.4 °F 62.6 °F 69% 29.84 in 10.0 mi NNW 5.8 mph - N/A   Mostly Cloudy
7:15 PM 73.4 °F 62.6 °F 69% 29.85 in 10.0 mi North 5.8 mph - N/A   Scattered Clouds
7:35 PM 71.6 °F 60.8 °F 69% 29.86 in 10.0 mi North 3.5 mph - N/A   Clear
7:55 PM 69.8 °F 57.2 °F 64% 29.87 in 10.0 mi North 6.9 mph - N/A   Clear
8:15 PM 68.0 °F 55.4 °F 64% 29.88 in 10.0 mi North 4.6 mph - N/A   Clear
8:35 PM 68.0 °F 51.8 °F 56% 29.89 in 10.0 mi North 4.6 mph - N/A   Clear
8:55 PM 66.2 °F 51.8 °F 60% 29.91 in 10.0 mi North 4.6 mph - N/A   Clear
9:15 PM 66.2 °F 51.8 °F 60% 29.91 in 10.0 mi Calm Calm - N/A   Clear
9:35 PM 64.4 °F 51.8 °F 64% 29.92 in 10.0 mi Calm Calm - N/A   Clear
9:55 PM 62.6 °F 51.8 °F 68% 29.92 in 10.0 mi Calm Calm - N/A   Clear
10:15 PM 60.8 °F 50.0 °F 68% 29.92 in 10.0 mi Calm Calm - N/A   Clear
10:35 PM 57.2 °F 51.8 °F 82% 29.93 in 10.0 mi Calm Calm - N/A   Clear
10:55 PM 57.2 °F 48.2 °F 72% 29.93 in 10.0 mi Calm Calm - N/A   Clear
11:15 PM 59.0 °F 48.2 °F 67% 29.93 in 10.0 mi North 3.5 mph - N/A   Clear
11:35 PM 60.8 °F 48.2 °F 63% 29.95 in 10.0 mi Calm Calm - N/A   Clear
11:55 PM 57.2 °F 48.2 °F 72% 29.95 in 10.0 mi Calm Calm - N/A   Clear